Regional Weather Roundup
Issued by NWS Sioux Falls, SD

Home | Current Version | Previous Version | Graphics & Text | Print | Product List | Glossary On
Versions: 1 2 3 4 5 6 7 8 9 10 11 12 13 14 15 16 17 18 19 20 21 22 23 24 25 26 27 28 29 30 31 32 33 34 35 36 37 38 39 40 41 42 43 44 45 46 47 48 49 50
000
ASUS43 KFSD 201802
RWRFSD

WEATHER ROUNDUP FOR SE SOUTH DAKOTA/SW MINNESOTA/NW IOWA
NATIONAL WEATHER SERVICE SIOUX FALLS SD
100 PM CDT SUN APR 20 2014

NOTE: "FAIR" INDICATES FEW OR NO CLOUDS BELOW 12,000 FEET WITH NO
SIGNIFICANT WEATHER AND OR OBSTRUCTIONS TO VISIBILITY.


SDZ038>040-050-052>070-201900-
SOUTHEAST SOUTH DAKOTA

CITY           SKY/WX    TMP DP  RH WIND       PRES   REMARKS
CHAMBERLAIN      N/A     74  29  19 SE16G22   29.95F
6HR MIN TEMP:  38; 6HR MAX TEMP:  74;

HURON          SUNNY     74  26  16 SE8       29.96F
6HR MIN TEMP:  35; 6HR MAX TEMP:  75;

MADISON        FAIR      73  30  20 E13G22    29.98F
MITCHELL       SUNNY     76  31  19 E10       29.96F
6HR MIN TEMP:  35; 6HR MAX TEMP:  76;

SIOUX FALLS    MOSUNNY   74  41  30 E9G21     29.96F
6HR MIN TEMP:  44; 6HR MAX TEMP:  75;

WINNER         FAIR      75  34  22 SE14G21   29.95F
YANKTON        MOSUNNY   72  46  40 E8        29.96F
$$

MNZ071-072-080-081-089-090-097-098-201900-
SOUTHWEST MINNESOTA

CITY           SKY/WX    TMP DP  RH WIND       PRES   REMARKS
FAIRMONT       SUNNY     66  52  59 S6        30.02F
JACKSON        SUNNY     70  45  40 SE7       30.00F
LUVERNE        SUNNY     73  36  25 E10G18    29.98F
MARSHALL       SUNNY     70  39  32 E13       30.00F
6HR MIN TEMP:  37; 6HR MAX TEMP:  70;

MONTEVIDEO     SUNNY     70  43  37 S8        30.01F
PIPESTONE      SUNNY     72  25  17 SE12G20   29.98F
REDWOOD FALLS  SUNNY     71  37  28 SE9       30.00F
TRACY          SUNNY     72  38  28 E12       30.00F
WINDOM         SUNNY     73  36  25 E12G17    29.99F
WORTHINGTON    SUNNY     70  41  35 E14       30.01F
$$

IAZ001>003-012>014-020>022-031-032-NEZ013-014-SDZ071-201900-
NORTHWEST IOWA

CITY           SKY/WX    TMP DP  RH WIND       PRES   REMARKS
CHEROKEE       FAIR      73  56  54 S8        29.98S
DENISON        MOSUNNY   75  52  43 VRB6G13   29.96F
ESTHERVILLE    SUNNY     70  51  51 VRB3      29.99F
SHELDON        MOSUNNY   72  48  43 E8G15     29.97F
SIOUX CITY     MOSUNNY   75  55  49 SE9       29.96F
6HR MIN TEMP:  55; 6HR MAX TEMP:  75; 6HR PCP: TRACE;

SPENCER        MOSUNNY   72  50  45 E5        29.98F
6HR MIN TEMP:  49; 6HR MAX TEMP:  73;

STORM LAKE     MOSUNNY   72  55  56 S10G16    29.99F
$$

ABBREVIATIONS USED IN REMARKS
   TC - TEMPERATURE IN CELSIUS
  WCI - WIND CHILL INDEX
   HX - HEAT INDEX
  VSB - VISIBILITY




USA.gov is the U.S. government's official web portal to all federal, state and local government web resources and services.